Weather History for Billings, MT

Change the Weather History Date:

Sunday, March 11, 2012

  Actual Average Record
Temperature  
Mean Temperature 51 °F 36 °F  
Max Temperature 68 °F 47 °F 73 °F (2005)
Min Temperature 34 °F 26 °F -11 °F (1956)
Degree Days  
Heating Degree Days 14 29  
Month to date heating degree days 244 330  
Since 1 July heating degree days 4752 5295  
Cooling Degree Days 0 0  
Month to date cooling degree days 0 0  
Year to date cooling degree days 0 0  
Growing Degree Days 2 (Base 50)    
Moisture  
Dew Point 17 °F    
Average Humidity 26    
Maximum Humidity 40    
Minimum Humidity 11    
Precipitation  
Precipitation 0.00 in 0.03 in 0.54 in (1954)
Month to date precipitation 0.10 0.29  
Year to date precipitation 0.95 1.25  
Snow  
Snow 0.00 in 0.40 in 5.20 in (1976)
Month to date snowfall 1.2 3.5  
Since 1 July snowfall 30.0 38.0  
Snow Depth 0.00 in    
Sea Level Pressure  
Sea Level Pressure 29.56 in    
Wind  
Wind Speed 13 mph (SW)    
Max Wind Speed 30 mph    
Max Gust Speed 37 mph    
Visibility 10 miles    
Events      
T = Trace of Precipitation, MM = Missing Value Source: NWS Daily Summary

Daily Weather History Graph

Daily Weather History Graph

Search for Another Location

Airport:

Trip Planner

Search our weather history database for the weather conditions in past years. The results will help you decide how hot, cold, wet, or windy it might be!

Date:

Astronomy

Mar. 11, 2012 Rise Set
Actual Time 7:33 AM MDT 7:15 PM MDT
Civil Twilight 7:03 AM MDT 7:45 PM MDT
Nautical Twilight 6:29 AM MDT 8:19 PM MDT
Astronomical Twilight 5:54 AM MDT 8:54 PM MDT
Moon No Moon Rise 8:55 AM MDT (3/11)
Length of Visible Light 12h 41m
Length of Day
11h 42m
Waning Gibbous, 85% of the Moon is Illuminated
Mar 11
Waning Gibbous
Mar 14
Last Quarter
Mar 22
New
Mar 30
First Quarter
Apr 6
Full

Hourly Weather History & Observations

Time (MDT) Temp. Windchill Dew Point Humidity Pressure Visibility Wind Dir Wind Speed Gust Speed Precip Events Conditions
12:53 AM 46.0 °F 41.4 °F 18.0 °F 33% 29.67 in 10.0 mi SSW 9.2 mph - N/A   Clear
1:53 AM 46.9 °F - 14.0 °F 27% 29.66 in 10.0 mi SSW 11.5 mph - N/A   Clear
3:53 AM 45.0 °F 38.9 °F 16.0 °F 31% 29.65 in 10.0 mi SW 12.7 mph - N/A   Clear
4:53 AM 45.0 °F 40.1 °F 12.9 °F 27% 29.65 in 10.0 mi SW 9.2 mph - N/A   Clear
5:53 AM 41.0 °F 35.2 °F 14.0 °F 33% 29.66 in 10.0 mi SSW 9.2 mph - N/A   Clear
6:53 AM 39.9 °F 32.5 °F 15.1 °F 36% 29.68 in 10.0 mi SW 12.7 mph - N/A   Clear
7:53 AM 39.0 °F 30.6 °F 15.1 °F 38% 29.68 in 10.0 mi WSW 15.0 mph - N/A   Partly Cloudy
8:53 AM 39.9 °F 32.5 °F 17.1 °F 40% 29.67 in 10.0 mi SW 12.7 mph - N/A   Partly Cloudy
9:53 AM 42.1 °F 34.5 °F 18.0 °F 38% 29.66 in 10.0 mi SW 15.0 mph - N/A   Partly Cloudy
10:53 AM 48.9 °F - 19.0 °F 31% 29.64 in 10.0 mi SW 10.4 mph - N/A   Clear
11:53 AM 55.0 °F - 19.9 °F 25% 29.60 in 10.0 mi South 8.1 mph - N/A   Clear
12:53 PM 59.0 °F - 16.0 °F 19% 29.56 in 10.0 mi South 4.6 mph - N/A   Clear
1:53 PM 62.1 °F - 17.1 °F 18% 29.52 in 10.0 mi SSE 6.9 mph - N/A   Clear
2:53 PM 64.9 °F - 16.0 °F 15% 29.47 in 10.0 mi SSW 6.9 mph - N/A   Clear
3:53 PM 66.9 °F - 10.9 °F 11% 29.43 in 10.0 mi SW 11.5 mph 19.6 mph N/A   Clear
4:53 PM 66.9 °F - 14.0 °F 13% 29.41 in 10.0 mi SW 9.2 mph 23.0 mph N/A   Partly Cloudy
5:53 PM 63.0 °F - 12.9 °F 14% 29.42 in 10.0 mi West 12.7 mph - N/A   Partly Cloudy
6:53 PM 63.0 °F - 12.9 °F 14% 29.44 in 10.0 mi SW 6.9 mph - N/A   Partly Cloudy
7:53 PM 59.0 °F - 17.1 °F 20% 29.48 in 10.0 mi West 23.0 mph 29.9 mph N/A   Partly Cloudy
8:53 PM 57.0 °F - 19.0 °F 23% 29.51 in 10.0 mi West 19.6 mph 31.1 mph N/A   Scattered Clouds
9:53 PM 55.0 °F - 21.0 °F 27% 29.51 in 10.0 mi West 21.9 mph 27.6 mph N/A   Clear
10:53 PM 55.0 °F - 21.0 °F 27% 29.50 in 10.0 mi West 25.3 mph 32.2 mph N/A   Clear
11:53 PM 52.0 °F - 21.9 °F 31% 29.51 in 10.0 mi SW 9.2 mph - N/A   Clear
12:53 AM 46.0 °F 39.3 °F 27.0 °F 47% 29.54 in 10.0 mi NW 16.1 mph - N/A   Partly Cloudy